Time,TemperatureF,DewpointF,PressureIn,WindDirection,WindDirectionDegrees,WindSpeedMPH,WindSpeedGustMPH,Humidity,HourlyPrecipIn,Conditions,Clouds,dailyrainin,SoftwareType,DateUTC
2013-05-05 00:01:00,42.1,37.0,30.18,ESE,113,0.7,1.6,82,0.00,,,0.00,WUHU216HW,2013-05-05 05:01:00,
2013-05-05 00:06:00,42.1,37.0,30.18,SE,135,1.8,1.8,82,0.00,,,0.00,WUHU216HW,2013-05-05 05:06:00,
2013-05-05 00:11:00,42.1,37.3,30.18,ENE,68,0.7,1.8,83,0.00,,,0.00,WUHU216HW,2013-05-05 05:11:00,
2013-05-05 00:16:00,41.9,36.8,30.18,East,90,0.7,1.8,82,0.00,,,0.00,WUHU216HW,2013-05-05 05:16:00,
2013-05-05 00:21:00,41.8,36.6,30.18,SSE,158,1.6,1.6,82,0.00,,,0.00,WUHU216HW,2013-05-05 05:21:00,
2013-05-05 00:26:00,41.8,36.6,30.18,SSE,158,2.5,2.9,82,0.00,,,0.00,WUHU216HW,2013-05-05 05:26:00,
2013-05-05 00:31:00,41.6,36.5,30.18,NNE,23,2.0,2.9,82,0.00,,,0.00,WUHU216HW,2013-05-05 05:31:00,
2013-05-05 00:36:00,41.6,36.5,30.18,ESE,113,1.6,2.5,82,0.00,,,0.00,WUHU216HW,2013-05-05 05:36:00,
2013-05-05 00:41:00,41.4,36.5,30.18,ENE,68,0.2,2.2,83,0.00,,,0.00,WUHU216HW,2013-05-05 05:41:00,
2013-05-05 00:46:00,41.4,36.3,30.18,ESE,113,1.1,2.2,82,0.00,,,0.00,WUHU216HW,2013-05-05 05:46:00,
2013-05-05 00:51:00,41.4,36.3,30.18,East,90,1.1,3.4,82,0.00,,,0.00,WUHU216HW,2013-05-05 05:51:00,
2013-05-05 00:56:00,41.4,36.3,30.18,WSW,248,0.2,3.4,82,0.00,,,0.00,WUHU216HW,2013-05-05 05:56:00,
2013-05-05 01:01:00,41.4,36.3,30.18,NW,315,0.4,2.2,82,0.00,,,0.00,WUHU216HW,2013-05-05 06:01:00,
2013-05-05 01:06:00,41.4,36.3,30.18,SW,225,0.9,1.8,82,0.00,,,0.00,WUHU216HW,2013-05-05 06:06:00,
2013-05-05 01:11:00,41.4,36.3,30.18,WSW,248,0.2,1.8,82,0.00,,,0.00,WUHU216HW,2013-05-05 06:11:00,
2013-05-05 01:16:00,41.4,36.3,30.18,SSW,203,0.2,1.3,82,0.00,,,0.00,WUHU216HW,2013-05-05 06:16:00,
2013-05-05 01:21:00,41.4,36.3,30.17,SSW,203,0.4,1.3,82,0.00,,,0.00,WUHU216HW,2013-05-05 06:21:00,
2013-05-05 01:26:00,41.2,36.1,30.17,ESE,113,0.4,1.1,82,0.00,,,0.00,WUHU216HW,2013-05-05 06:26:00,
2013-05-05 01:31:00,41.0,36.2,30.17,West,270,0.9,1.1,83,0.00,,,0.00,WUHU216HW,2013-05-05 06:31:00,
2013-05-05 01:36:00,41.0,35.9,30.17,NNW,338,0.4,1.3,82,0.00,,,0.00,WUHU216HW,2013-05-05 06:36:00,
2013-05-05 01:41:00,41.0,35.9,30.17,WNW,293,0.4,1.3,82,0.00,,,0.00,WUHU216HW,2013-05-05 06:41:00,
2013-05-05 01:46:00,40.9,35.7,30.17,SE,135,0.0,1.1,82,0.00,,,0.00,WUHU216HW,2013-05-05 06:46:00,
2013-05-05 01:51:00,40.9,35.7,30.16,WNW,293,1.1,1.1,82,0.00,,,0.00,WUHU216HW,2013-05-05 06:51:00,
2013-05-05 01:56:00,40.7,35.6,30.16,NNE,23,0.4,1.1,82,0.00,,,0.00,WUHU216HW,2013-05-05 06:56:00,
2013-05-05 02:01:00,40.7,35.6,30.16,NW,315,0.0,1.1,82,0.00,,,0.00,WUHU216HW,2013-05-05 07:01:00,
2013-05-05 02:06:00,40.7,35.6,30.16,North,0,0.4,1.1,82,0.00,,,0.00,WUHU216HW,2013-05-05 07:06:00,
2013-05-05 02:11:00,40.7,35.6,30.16,SE,135,0.2,0.7,82,0.00,,,0.00,WUHU216HW,2013-05-05 07:11:00,
2013-05-05 02:16:00,40.5,35.4,30.16,WNW,293,0.0,0.7,82,0.00,,,0.00,WUHU216HW,2013-05-05 07:16:00,
2013-05-05 02:21:00,40.5,35.4,30.16,SSW,203,0.0,0.7,82,0.00,,,0.00,WUHU216HW,2013-05-05 07:21:00,
2013-05-05 02:26:00,40.5,35.4,30.16,North,0,0.0,0.9,82,0.00,,,0.00,WUHU216HW,2013-05-05 07:26:00,
2013-05-05 02:31:00,40.5,35.4,30.16,NNW,338,0.2,0.9,82,0.00,,,0.00,WUHU216HW,2013-05-05 07:31:00,
2013-05-05 02:36:00,40.5,35.4,30.16,SSE,158,0.2,0.9,82,0.00,,,0.00,WUHU216HW,2013-05-05 07:36:00,
2013-05-05 02:41:00,40.5,35.4,30.16,SW,225,0.2,0.7,82,0.00,,,0.00,WUHU216HW,2013-05-05 07:41:00,
2013-05-05 02:46:00,40.3,35.2,30.15,SSE,158,0.7,0.7,82,0.00,,,0.00,WUHU216HW,2013-05-05 07:46:00,
2013-05-05 02:51:00,40.3,35.2,30.15,WNW,293,0.4,2.2,82,0.00,,,0.00,WUHU216HW,2013-05-05 07:51:00,
2013-05-05 02:56:00,40.1,35.1,30.16,NW,315,0.2,2.2,82,0.00,,,0.00,WUHU216HW,2013-05-05 07:56:00,
2013-05-05 03:01:00,40.1,35.1,30.16,SSW,203,0.0,1.1,82,0.00,,,0.00,WUHU216HW,2013-05-05 08:01:00,
2013-05-05 03:06:00,40.1,35.4,30.16,North,0,0.2,1.1,83,0.00,,,0.00,WUHU216HW,2013-05-05 08:06:00,
2013-05-05 03:11:00,40.0,35.2,30.16,NW,315,0.0,1.1,83,0.00,,,0.00,WUHU216HW,2013-05-05 08:11:00,
2013-05-05 03:16:00,40.1,35.1,30.15,ESE,113,0.4,1.1,82,0.00,,,0.00,WUHU216HW,2013-05-05 08:16:00,
2013-05-05 03:21:00,40.1,35.4,30.15,SE,135,0.4,1.8,83,0.00,,,0.00,WUHU216HW,2013-05-05 08:21:00,
2013-05-05 03:26:00,40.0,34.9,30.16,ENE,68,0.7,1.8,82,0.00,,,0.00,WUHU216HW,2013-05-05 08:26:00,
2013-05-05 03:31:00,40.0,35.2,30.16,ESE,113,0.7,1.1,83,0.00,,,0.00,WUHU216HW,2013-05-05 08:31:00,
2013-05-05 03:36:00,40.0,35.2,30.16,WSW,248,0.0,1.1,83,0.00,,,0.00,WUHU216HW,2013-05-05 08:36:00,
2013-05-05 03:41:00,40.0,35.2,30.16,WSW,248,1.1,1.1,83,0.00,,,0.00,WUHU216HW,2013-05-05 08:41:00,
2013-05-05 03:46:00,40.0,35.2,30.16,NE,45,0.4,1.6,83,0.00,,,0.00,WUHU216HW,2013-05-05 08:46:00,
2013-05-05 03:51:00,40.0,35.2,30.16,South,180,0.4,1.6,83,0.00,,,0.00,WUHU216HW,2013-05-05 08:51:00,
2013-05-05 03:56:00,39.8,35.0,30.16,East,90,0.0,2.2,83,0.00,,,0.00,WUHU216HW,2013-05-05 08:56:00,
2013-05-05 04:01:00,39.8,35.0,30.16,West,270,0.7,2.2,83,0.00,,,0.00,WUHU216HW,2013-05-05 09:01:00,
2013-05-05 04:06:00,39.8,35.0,30.16,NE,45,0.4,1.8,83,0.00,,,0.00,WUHU216HW,2013-05-05 09:06:00,
2013-05-05 04:11:00,39.6,34.8,30.16,NNE,23,0.4,1.8,83,0.00,,,0.00,WUHU216HW,2013-05-05 09:11:00,
2013-05-05 04:16:00,39.6,35.2,30.16,SE,135,0.4,1.3,84,0.00,,,0.00,WUHU216HW,2013-05-05 09:16:00,
2013-05-05 04:21:00,39.6,35.2,30.16,East,90,0.0,1.3,84,0.00,,,0.00,WUHU216HW,2013-05-05 09:21:00,
2013-05-05 04:26:00,39.4,35.0,30.16,SSW,203,0.7,2.0,84,0.00,,,0.00,WUHU216HW,2013-05-05 09:26:00,
2013-05-05 04:31:00,39.4,35.0,30.16,SW,225,1.1,2.0,84,0.00,,,0.00,WUHU216HW,2013-05-05 09:31:00,
2013-05-05 04:36:00,39.2,34.8,30.16,NE,45,1.1,1.8,84,0.00,,,0.00,WUHU216HW,2013-05-05 09:36:00,
2013-05-05 04:41:00,39.2,34.8,30.16,WSW,248,1.1,1.6,84,0.00,,,0.00,WUHU216HW,2013-05-05 09:41:00,
2013-05-05 04:46:00,39.2,34.8,30.16,SE,135,0.2,1.8,84,0.00,,,0.00,WUHU216HW,2013-05-05 09:46:00,
2013-05-05 04:51:00,39.2,34.8,30.16,South,180,0.4,1.8,84,0.00,,,0.00,WUHU216HW,2013-05-05 09:51:00,
2013-05-05 04:56:00,39.2,34.8,30.16,West,270,0.4,0.9,84,0.00,,,0.00,WUHU216HW,2013-05-05 09:56:00,
2013-05-05 05:01:00,39.2,34.8,30.16,SW,225,0.4,0.9,84,0.00,,,0.00,WUHU216HW,2013-05-05 10:01:00,
2013-05-05 05:06:00,39.2,34.8,30.16,SSE,158,0.2,0.7,84,0.00,,,0.00,WUHU216HW,2013-05-05 10:06:00,
2013-05-05 05:11:00,39.2,34.8,30.16,NNE,23,0.2,1.8,84,0.00,,,0.00,WUHU216HW,2013-05-05 10:11:00,
2013-05-05 05:16:00,39.2,35.1,30.16,SSE,158,0.4,1.8,85,0.00,,,0.00,WUHU216HW,2013-05-05 10:16:00,
2013-05-05 05:21:00,39.2,34.8,30.16,South,180,0.4,1.6,84,0.00,,,0.00,WUHU216HW,2013-05-05 10:21:00,
2013-05-05 05:26:00,39.2,34.8,30.16,NNW,338,0.0,1.6,84,0.00,,,0.00,WUHU216HW,2013-05-05 10:26:00,
2013-05-05 05:31:00,39.1,34.7,30.16,South,180,0.7,2.5,84,0.00,,,0.00,WUHU216HW,2013-05-05 10:31:00,
2013-05-05 05:36:00,39.1,34.7,30.16,NNW,338,0.7,2.5,84,0.00,,,0.00,WUHU216HW,2013-05-05 10:36:00,
2013-05-05 05:41:00,39.1,34.9,30.16,WNW,293,0.0,1.1,85,0.00,,,0.00,WUHU216HW,2013-05-05 10:41:00,
2013-05-05 05:46:00,39.1,34.9,30.16,East,90,0.2,1.1,85,0.00,,,0.00,WUHU216HW,2013-05-05 10:46:00,
2013-05-05 05:51:00,39.1,34.9,30.16,East,90,0.2,1.1,85,0.00,,,0.00,WUHU216HW,2013-05-05 10:51:00,
2013-05-05 05:56:00,39.1,34.9,30.16,South,180,1.1,1.1,85,0.00,,,0.00,WUHU216HW,2013-05-05 10:56:00,
2013-05-05 06:02:00,39.1,34.9,30.16,NE,45,0.2,1.6,85,0.00,,,0.00,WUHU216HW,2013-05-05 11:02:00,
2013-05-05 06:07:00,39.1,34.9,30.17,ENE,68,0.4,1.6,85,0.00,,,0.00,WUHU216HW,2013-05-05 11:07:00,
2013-05-05 06:12:00,39.1,35.2,30.17,SW,225,0.9,1.1,86,0.00,,,0.00,WUHU216HW,2013-05-05 11:12:00,
2013-05-05 06:17:00,39.1,34.9,30.17,ENE,68,0.7,1.1,85,0.00,,,0.00,WUHU216HW,2013-05-05 11:17:00,
2013-05-05 06:22:00,39.1,34.9,30.17,ESE,113,1.8,2.2,85,0.00,,,0.00,WUHU216HW,2013-05-05 11:22:00,
2013-05-05 06:27:00,39.2,35.4,30.17,SE,135,0.4,2.5,86,0.00,,,0.00,WUHU216HW,2013-05-05 11:27:00,
2013-05-05 06:32:00,39.2,35.1,30.17,SSW,203,0.9,2.5,85,0.00,,,0.00,WUHU216HW,2013-05-05 11:32:00,
2013-05-05 06:37:00,39.2,35.1,30.17,East,90,0.9,1.3,85,0.00,,,0.00,WUHU216HW,2013-05-05 11:37:00,
2013-05-05 06:42:00,39.2,35.1,30.18,SSW,203,0.7,1.3,85,0.00,,,0.00,WUHU216HW,2013-05-05 11:42:00,
2013-05-05 06:47:00,39.2,35.1,30.18,SE,135,0.4,0.9,85,0.00,,,0.00,WUHU216HW,2013-05-05 11:47:00,
2013-05-05 06:52:00,39.4,35.6,30.18,NE,45,0.4,1.8,86,0.00,,,0.00,WUHU216HW,2013-05-05 11:52:00,
2013-05-05 06:57:00,39.4,35.3,30.18,SSE,158,0.4,1.8,85,0.00,,,0.00,WUHU216HW,2013-05-05 11:57:00,
2013-05-05 07:02:00,39.6,35.7,30.18,SE,135,0.4,1.6,86,0.00,,,0.00,WUHU216HW,2013-05-05 12:02:00,
2013-05-05 07:07:00,39.6,35.5,30.18,NNE,23,0.2,1.6,85,0.00,,,0.00,WUHU216HW,2013-05-05 12:07:00,
2013-05-05 07:12:00,40.0,35.8,30.18,SW,225,1.1,1.3,85,0.00,,,0.00,WUHU216HW,2013-05-05 12:12:00,
2013-05-05 07:17:00,40.0,35.8,30.18,West,270,0.0,1.3,85,0.00,,,0.00,WUHU216HW,2013-05-05 12:17:00,
2013-05-05 07:22:00,40.0,35.8,30.18,ENE,68,0.4,1.1,85,0.00,,,0.00,WUHU216HW,2013-05-05 12:22:00,
2013-05-05 07:27:00,40.1,35.9,30.18,SSE,158,0.2,1.3,85,0.00,,,0.00,WUHU216HW,2013-05-05 12:27:00,
2013-05-05 07:32:00,40.1,35.6,30.18,WNW,293,0.7,2.0,84,0.00,,,0.00,WUHU216HW,2013-05-05 12:32:00,
2013-05-05 07:37:00,40.3,35.8,30.18,SW,225,0.9,2.0,84,0.00,,,0.00,WUHU216HW,2013-05-05 12:37:00,
2013-05-05 07:42:00,40.5,36.0,30.18,SE,135,0.2,1.8,84,0.00,,,0.00,WUHU216HW,2013-05-05 12:42:00,
2013-05-05 07:47:00,40.9,36.4,30.18,SSW,203,0.4,2.5,84,0.00,,,0.00,WUHU216HW,2013-05-05 12:47:00,
2013-05-05 07:52:00,41.4,36.9,30.18,WSW,248,1.1,2.5,84,0.00,,,0.00,WUHU216HW,2013-05-05 12:52:00,
2013-05-05 07:57:00,41.9,37.5,30.18,NNW,338,0.2,2.2,84,0.00,,,0.00,WUHU216HW,2013-05-05 12:57:00,
2013-05-05 08:02:00,42.1,37.3,30.18,SE,135,0.4,2.0,83,0.00,,,0.00,WUHU216HW,2013-05-05 13:02:00,
2013-05-05 08:07:00,42.5,37.6,30.18,ESE,113,1.6,2.0,83,0.00,,,0.00,WUHU216HW,2013-05-05 13:07:00,
2013-05-05 08:12:00,42.5,37.4,30.18,NNE,23,0.9,1.8,82,0.00,,,0.00,WUHU216HW,2013-05-05 13:12:00,
2013-05-05 08:17:00,42.7,37.5,30.18,SSW,203,0.2,1.8,82,0.00,,,0.00,WUHU216HW,2013-05-05 13:17:00,
2013-05-05 08:22:00,42.8,37.7,30.18,SE,135,0.4,1.8,82,0.00,,,0.00,WUHU216HW,2013-05-05 13:22:00,
2013-05-05 08:27:00,43.4,38.3,30.18,ENE,68,0.4,1.8,82,0.00,,,0.00,WUHU216HW,2013-05-05 13:27:00,
2013-05-05 08:32:00,44.3,38.8,30.18,SE,135,0.7,2.2,81,0.00,,,0.00,WUHU216HW,2013-05-05 13:32:00,
2013-05-05 08:37:00,45.4,39.9,30.18,ENE,68,0.9,2.2,81,0.00,,,0.00,WUHU216HW,2013-05-05 13:37:00,
2013-05-05 08:42:00,45.9,39.4,30.18,North,0,2.5,2.5,78,0.00,,,0.00,WUHU216HW,2013-05-05 13:42:00,
2013-05-05 08:47:00,46.6,40.1,30.18,NE,45,0.7,2.5,78,0.00,,,0.00,WUHU216HW,2013-05-05 13:47:00,
2013-05-05 08:52:00,47.3,40.8,30.19,ESE,113,0.9,2.5,78,0.00,,,0.00,WUHU216HW,2013-05-05 13:52:00,
2013-05-05 08:57:00,48.4,41.5,30.18,SSW,203,0.9,1.8,77,0.00,,,0.00,WUHU216HW,2013-05-05 13:57:00,
2013-05-05 09:02:00,49.3,42.0,30.18,ESE,113,1.1,1.6,76,0.00,,,0.00,WUHU216HW,2013-05-05 14:02:00,
2013-05-05 09:07:00,50.2,41.9,30.18,WNW,293,1.8,1.8,73,0.00,,,0.00,WUHU216HW,2013-05-05 14:07:00,
2013-05-05 09:12:00,50.6,42.0,30.18,NNW,338,1.1,1.8,72,0.00,,,0.00,WUHU216HW,2013-05-05 14:12:00,
2013-05-05 09:17:00,49.9,40.5,30.18,ENE,68,0.9,2.0,70,0.00,,,0.00,WUHU216HW,2013-05-05 14:17:00,
2013-05-05 09:22:00,49.0,40.0,30.18,WSW,248,1.3,2.0,71,0.00,,,0.00,WUHU216HW,2013-05-05 14:22:00,
2013-05-05 09:27:00,48.4,39.8,30.18,NNW,338,1.1,2.2,72,0.00,,,0.00,WUHU216HW,2013-05-05 14:27:00,
2013-05-05 09:32:00,48.6,40.0,30.18,NNE,23,0.4,2.2,72,0.00,,,0.00,WUHU216HW,2013-05-05 14:32:00,
2013-05-05 09:37:00,49.3,40.7,30.18,East,90,0.4,2.2,72,0.00,,,0.00,WUHU216HW,2013-05-05 14:37:00,
2013-05-05 09:42:00,50.4,41.4,30.18,SSE,158,2.7,2.7,71,0.00,,,0.00,WUHU216HW,2013-05-05 14:42:00,
2013-05-05 09:47:00,50.6,41.2,30.18,NW,315,1.1,2.7,70,0.00,,,0.00,WUHU216HW,2013-05-05 14:47:00,
2013-05-05 09:52:00,49.7,40.0,30.18,SE,135,1.8,4.0,69,0.01,,,0.01,WUHU216HW,2013-05-05 14:52:00,
2013-05-05 09:57:00,49.3,40.0,30.18,West,270,0.7,4.0,70,0.01,,,0.01,WUHU216HW,2013-05-05 14:57:00,
2013-05-05 10:02:00,49.1,39.8,30.18,SSE,158,1.1,3.4,70,0.01,,,0.01,WUHU216HW,2013-05-05 15:02:00,
2013-05-05 10:07:00,49.1,40.2,30.18,NNE,23,0.7,3.4,71,0.01,,,0.01,WUHU216HW,2013-05-05 15:07:00,
2013-05-05 10:12:00,49.3,40.0,30.18,WSW,248,0.7,1.8,70,0.01,,,0.01,WUHU216HW,2013-05-05 15:12:00,
2013-05-05 10:17:00,49.5,40.5,30.18,SE,135,0.4,2.2,71,0.01,,,0.01,WUHU216HW,2013-05-05 15:17:00,
2013-05-05 10:22:00,50.0,41.1,30.18,SE,135,1.1,2.2,71,0.01,,,0.01,WUHU216HW,2013-05-05 15:22:00,
2013-05-05 10:27:00,50.6,40.4,30.18,WNW,293,1.1,3.4,68,0.01,,,0.01,WUHU216HW,2013-05-05 15:27:00,
2013-05-05 10:32:00,50.8,40.6,30.17,SSE,158,1.8,3.6,68,0.01,,,0.01,WUHU216HW,2013-05-05 15:32:00,
2013-05-05 10:37:00,51.5,41.3,30.17,NW,315,0.4,3.6,68,0.01,,,0.01,WUHU216HW,2013-05-05 15:37:00,
2013-05-05 10:42:00,51.8,41.7,30.17,South,180,1.1,2.5,68,0.01,,,0.01,WUHU216HW,2013-05-05 15:42:00,
2013-05-05 10:47:00,52.6,42.8,30.18,ENE,68,0.7,2.2,69,0.01,,,0.01,WUHU216HW,2013-05-05 15:47:00,
2013-05-05 10:52:00,53.5,43.1,30.18,SE,135,0.7,2.0,68,0.00,,,0.01,WUHU216HW,2013-05-05 15:52:00,
2013-05-05 10:57:00,53.6,42.5,30.18,SSW,203,1.1,2.2,66,0.00,,,0.01,WUHU216HW,2013-05-05 15:57:00,
2013-05-05 11:02:00,53.1,42.0,30.18,WSW,248,1.1,2.2,66,0.00,,,0.01,WUHU216HW,2013-05-05 16:02:00,
2013-05-05 11:07:00,52.9,42.2,30.18,WNW,293,0.4,1.8,67,0.00,,,0.01,WUHU216HW,2013-05-05 16:07:00,
2013-05-05 11:12:00,52.6,42.0,30.18,South,180,0.4,2.0,67,0.00,,,0.01,WUHU216HW,2013-05-05 16:12:00,
2013-05-05 11:17:00,52.2,41.6,30.18,WNW,293,1.6,2.9,67,0.00,,,0.01,WUHU216HW,2013-05-05 16:17:00,
2013-05-05 11:22:00,52.2,41.9,30.17,West,270,0.9,2.9,68,0.00,,,0.01,WUHU216HW,2013-05-05 16:22:00,
2013-05-05 11:27:00,52.7,42.5,30.17,SE,135,1.1,2.5,68,0.00,,,0.01,WUHU216HW,2013-05-05 16:27:00,
2013-05-05 11:32:00,53.3,43.0,30.17,NW,315,1.1,2.5,68,0.00,,,0.01,WUHU216HW,2013-05-05 16:32:00,
2013-05-05 11:37:00,54.2,42.2,30.17,WNW,293,2.5,2.5,64,0.00,,,0.01,WUHU216HW,2013-05-05 16:37:00,
2013-05-05 11:42:00,54.9,43.8,30.17,NW,315,1.3,2.5,66,0.00,,,0.01,WUHU216HW,2013-05-05 16:42:00,
2013-05-05 11:47:00,55.4,43.4,30.17,East,90,0.4,2.2,64,0.00,,,0.01,WUHU216HW,2013-05-05 16:47:00,
2013-05-05 11:52:00,56.3,44.7,30.17,ENE,68,0.2,2.2,65,0.00,,,0.01,WUHU216HW,2013-05-05 16:52:00,
2013-05-05 11:57:00,56.5,44.5,30.17,East,90,0.7,2.5,64,0.00,,,0.01,WUHU216HW,2013-05-05 16:57:00,
2013-05-05 12:02:00,56.3,44.3,30.17,NW,315,0.4,2.5,64,0.00,,,0.01,WUHU216HW,2013-05-05 17:02:00,
2013-05-05 12:07:00,56.7,43.8,30.16,NE,45,3.4,3.4,62,0.00,,,0.01,WUHU216HW,2013-05-05 17:07:00,
2013-05-05 12:12:00,56.2,44.1,30.17,South,180,0.7,3.4,64,0.00,,,0.01,WUHU216HW,2013-05-05 17:12:00,
2013-05-05 12:17:00,56.2,43.8,30.16,NNW,338,1.8,3.4,63,0.00,,,0.01,WUHU216HW,2013-05-05 17:17:00,
2013-05-05 12:22:00,55.8,42.9,30.16,WSW,248,1.8,2.5,62,0.00,,,0.01,WUHU216HW,2013-05-05 17:22:00,
2013-05-05 12:27:00,55.3,43.3,30.16,ENE,68,0.0,2.5,64,0.00,,,0.01,WUHU216HW,2013-05-05 17:27:00,
2013-05-05 12:32:00,56.3,44.7,30.16,West,270,1.3,2.5,65,0.00,,,0.01,WUHU216HW,2013-05-05 17:32:00,
2013-05-05 12:37:00,56.5,43.7,30.16,West,270,1.3,3.4,62,0.00,,,0.01,WUHU216HW,2013-05-05 17:37:00,
2013-05-05 12:42:00,56.2,43.8,30.16,West,270,1.8,3.4,63,0.00,,,0.01,WUHU216HW,2013-05-05 17:42:00,
2013-05-05 12:47:00,56.7,44.7,30.16,ESE,113,0.4,2.5,64,0.00,,,0.01,WUHU216HW,2013-05-05 17:47:00,
2013-05-05 12:52:00,56.9,44.0,30.16,NE,45,0.7,1.8,62,0.00,,,0.01,WUHU216HW,2013-05-05 17:52:00,
2013-05-05 12:57:00,57.2,44.7,30.16,NW,315,0.7,1.8,63,0.00,,,0.01,WUHU216HW,2013-05-05 17:57:00,
2013-05-05 13:02:00,57.2,43.9,30.16,ENE,68,0.4,3.1,61,0.00,,,0.01,WUHU216HW,2013-05-05 18:02:00,
2013-05-05 13:07:00,56.9,43.2,30.16,ENE,68,1.3,3.1,60,0.00,,,0.01,WUHU216HW,2013-05-05 18:07:00,
2013-05-05 13:12:00,57.1,44.6,30.16,NE,45,1.1,2.5,63,0.00,,,0.01,WUHU216HW,2013-05-05 18:12:00,
2013-05-05 13:17:00,58.0,45.0,30.16,NNE,23,1.3,1.6,62,0.00,,,0.01,WUHU216HW,2013-05-05 18:17:00,
2013-05-05 13:22:00,59.0,46.0,30.16,ESE,113,0.4,1.6,62,0.00,,,0.01,WUHU216HW,2013-05-05 18:22:00,
2013-05-05 13:27:00,59.6,46.5,30.15,West,270,0.4,1.6,62,0.00,,,0.01,WUHU216HW,2013-05-05 18:27:00,
2013-05-05 13:32:00,59.8,46.4,30.15,SE,135,1.1,2.0,61,0.00,,,0.01,WUHU216HW,2013-05-05 18:32:00,
2013-05-05 13:37:00,60.1,45.8,30.15,NNW,338,0.9,2.0,59,0.00,,,0.01,WUHU216HW,2013-05-05 18:37:00,
2013-05-05 13:42:00,59.4,45.1,30.15,SE,135,1.1,2.5,59,0.00,,,0.01,WUHU216HW,2013-05-05 18:42:00,
2013-05-05 13:47:00,59.6,46.2,30.15,SW,225,0.2,2.5,61,0.00,,,0.01,WUHU216HW,2013-05-05 18:47:00,
2013-05-05 13:52:00,59.9,46.5,30.15,SE,135,0.7,2.0,61,0.00,,,0.01,WUHU216HW,2013-05-05 18:52:00,
2013-05-05 13:57:00,60.3,46.9,30.15,ESE,113,0.4,2.5,61,0.00,,,0.01,WUHU216HW,2013-05-05 18:57:00,
2013-05-05 14:02:00,61.0,47.2,30.15,SE,135,0.4,2.5,60,0.00,,,0.01,WUHU216HW,2013-05-05 19:02:00,
2013-05-05 14:07:00,61.4,46.0,30.15,NW,315,0.4,2.7,57,0.00,,,0.01,WUHU216HW,2013-05-05 19:07:00,
2013-05-05 14:12:00,60.1,45.8,30.15,ESE,113,0.9,3.1,59,0.00,,,0.01,WUHU216HW,2013-05-05 19:12:00,
2013-05-05 14:17:00,59.8,45.5,30.14,WSW,248,0.7,3.1,59,0.00,,,0.01,WUHU216HW,2013-05-05 19:17:00,
2013-05-05 14:22:00,59.8,45.5,30.14,South,180,0.4,2.0,59,0.00,,,0.01,WUHU216HW,2013-05-05 19:22:00,
2013-05-05 14:27:00,59.8,45.5,30.14,NNW,338,1.3,2.7,59,0.00,,,0.01,WUHU216HW,2013-05-05 19:27:00,
2013-05-05 14:32:00,60.3,46.0,30.14,West,270,1.1,2.7,59,0.00,,,0.01,WUHU216HW,2013-05-05 19:32:00,
2013-05-05 14:37:00,60.5,46.2,30.14,NW,315,1.1,2.5,59,0.00,,,0.01,WUHU216HW,2013-05-05 19:37:00,
2013-05-05 14:42:00,61.2,46.8,30.14,WNW,293,0.9,2.5,59,0.00,,,0.01,WUHU216HW,2013-05-05 19:42:00,
2013-05-05 14:48:00,61.2,45.8,30.14,SSE,158,0.9,2.2,57,0.00,,,0.01,WUHU216HW,2013-05-05 19:48:00,
2013-05-05 14:53:00,61.0,46.2,30.14,SW,225,1.1,2.2,58,0.00,,,0.01,WUHU216HW,2013-05-05 19:53:00,
2013-05-05 14:58:00,61.6,46.2,30.13,SSW,203,3.4,3.4,57,0.00,,,0.01,WUHU216HW,2013-05-05 19:58:00,
2013-05-05 15:03:00,62.1,47.2,30.13,NW,315,1.1,3.4,58,0.00,,,0.01,WUHU216HW,2013-05-05 20:03:00,
2013-05-05 15:08:00,62.8,47.8,30.13,WSW,248,0.4,3.4,58,0.00,,,0.01,WUHU216HW,2013-05-05 20:08:00,
2013-05-05 15:13:00,63.5,48.0,30.13,WNW,293,0.7,1.6,57,0.00,,,0.01,WUHU216HW,2013-05-05 20:13:00,
2013-05-05 15:18:00,64.3,48.2,30.13,ESE,113,0.4,1.6,56,0.00,,,0.01,WUHU216HW,2013-05-05 20:18:00,
2013-05-05 15:23:00,65.0,48.8,30.13,ENE,68,0.4,2.5,56,0.00,,,0.01,WUHU216HW,2013-05-05 20:23:00,
2013-05-05 15:28:00,65.7,49.1,30.12,NNE,23,0.9,2.5,55,0.00,,,0.01,WUHU216HW,2013-05-05 20:28:00,
2013-05-05 15:33:00,64.8,46.2,30.12,West,270,2.5,2.5,51,0.00,,,0.01,WUHU216HW,2013-05-05 20:33:00,
2013-05-05 15:38:00,63.5,47.0,30.12,WSW,248,0.9,2.5,55,0.00,,,0.01,WUHU216HW,2013-05-05 20:38:00,
2013-05-05 15:43:00,64.6,48.4,30.12,SSW,203,1.1,2.5,56,0.00,,,0.01,WUHU216HW,2013-05-05 20:43:00,
2013-05-05 15:48:00,66.6,48.4,30.12,WSW,248,1.6,3.4,52,0.00,,,0.01,WUHU216HW,2013-05-05 20:48:00,
2013-05-05 15:53:00,68.6,49.8,30.12,SW,225,0.9,3.4,51,0.00,,,0.01,WUHU216HW,2013-05-05 20:53:00,
2013-05-05 15:58:00,68.8,50.0,30.11,NE,45,1.1,3.1,51,0.00,,,0.01,WUHU216HW,2013-05-05 20:58:00,
2013-05-05 16:03:00,68.6,49.2,30.11,SW,225,0.4,1.8,50,0.00,,,0.01,WUHU216HW,2013-05-05 21:03:00,
2013-05-05 16:08:00,68.8,47.6,30.11,WNW,293,1.6,2.0,47,0.00,,,0.01,WUHU216HW,2013-05-05 21:08:00,
2013-05-05 16:13:00,67.3,48.6,30.11,SE,135,0.9,2.0,51,0.00,,,0.01,WUHU216HW,2013-05-05 21:13:00,
2013-05-05 16:18:00,67.0,48.8,30.11,East,90,0.4,1.8,52,0.00,,,0.01,WUHU216HW,2013-05-05 21:18:00,
2013-05-05 16:23:00,66.6,48.0,30.11,East,90,1.3,1.8,51,0.00,,,0.01,WUHU216HW,2013-05-05 21:23:00,
2013-05-05 16:28:00,65.7,48.1,30.11,SE,135,0.2,1.8,53,0.00,,,0.01,WUHU216HW,2013-05-05 21:28:00,
2013-05-05 16:33:00,67.3,49.2,30.11,WSW,248,1.3,1.8,52,0.00,,,0.01,WUHU216HW,2013-05-05 21:33:00,
2013-05-05 16:38:00,67.7,49.0,30.10,WSW,248,1.6,2.5,51,0.00,,,0.01,WUHU216HW,2013-05-05 21:38:00,
2013-05-05 16:43:00,68.9,49.0,30.10,WNW,293,1.8,2.5,49,0.00,,,0.01,WUHU216HW,2013-05-05 21:43:00,
2013-05-05 16:48:00,70.0,48.8,30.10,WSW,248,3.6,3.6,47,0.00,,,0.01,WUHU216HW,2013-05-05 21:48:00,
2013-05-05 16:53:00,70.9,50.8,30.10,SW,225,2.2,3.6,49,0.00,,,0.01,WUHU216HW,2013-05-05 21:53:00,
2013-05-05 16:58:00,72.0,51.1,30.10,West,270,0.2,2.9,48,0.00,,,0.01,WUHU216HW,2013-05-05 21:58:00,
2013-05-05 17:03:00,71.5,48.9,30.10,WNW,293,1.6,3.1,45,0.00,,,0.01,WUHU216HW,2013-05-05 22:03:00,
2013-05-05 17:08:00,71.8,51.0,30.10,SW,225,0.4,4.5,48,0.00,,,0.01,WUHU216HW,2013-05-05 22:08:00,
2013-05-05 17:13:00,72.0,50.0,30.10,West,270,0.9,4.5,46,0.00,,,0.01,WUHU216HW,2013-05-05 22:13:00,
2013-05-05 17:18:00,72.7,50.6,30.10,NE,45,0.9,2.9,46,0.00,,,0.01,WUHU216HW,2013-05-05 22:18:00,
2013-05-05 17:23:00,72.7,50.6,30.10,WNW,293,0.7,2.9,46,0.00,,,0.01,WUHU216HW,2013-05-05 22:23:00,
2013-05-05 17:28:00,72.4,51.5,30.10,ESE,113,1.1,2.9,48,0.00,,,0.01,WUHU216HW,2013-05-05 22:28:00,
2013-05-05 17:33:00,71.6,50.2,30.10,NNE,23,0.0,1.8,47,0.00,,,0.01,WUHU216HW,2013-05-05 22:33:00,
2013-05-05 17:38:00,72.7,51.2,30.09,ENE,68,0.2,1.6,47,0.00,,,0.01,WUHU216HW,2013-05-05 22:38:00,
2013-05-05 17:43:00,74.2,50.8,30.09,West,270,1.8,2.5,44,0.00,,,0.01,WUHU216HW,2013-05-05 22:43:00,
2013-05-05 17:48:00,74.3,51.6,30.10,SSW,203,0.0,2.5,45,0.00,,,0.01,WUHU216HW,2013-05-05 22:48:00,
2013-05-05 17:53:00,74.5,51.1,30.10,NNW,338,0.4,2.9,44,0.00,,,0.01,WUHU216HW,2013-05-05 22:53:00,
2013-05-05 17:58:00,74.2,50.8,30.10,WSW,248,0.4,2.9,44,0.00,,,0.01,WUHU216HW,2013-05-05 22:58:00,
2013-05-05 18:03:00,73.8,51.6,30.10,SE,135,0.0,2.5,46,0.00,,,0.01,WUHU216HW,2013-05-05 23:03:00,
2013-05-05 18:08:00,74.5,51.7,30.10,NE,45,0.4,1.1,45,0.00,,,0.01,WUHU216HW,2013-05-05 23:08:00,
2013-05-05 18:13:00,74.7,50.0,30.10,West,270,3.4,3.4,42,0.00,,,0.01,WUHU216HW,2013-05-05 23:13:00,
2013-05-05 18:18:00,73.1,50.3,30.10,ENE,68,1.8,3.4,45,0.00,,,0.01,WUHU216HW,2013-05-05 23:18:00,
2013-05-05 18:23:00,72.7,50.6,30.10,ENE,68,0.2,3.1,46,0.00,,,0.01,WUHU216HW,2013-05-05 23:23:00,
2013-05-05 18:28:00,72.4,50.3,30.10,SW,225,1.1,3.4,46,0.00,,,0.01,WUHU216HW,2013-05-05 23:28:00,
2013-05-05 18:33:00,71.6,49.7,30.10,North,0,0.4,3.4,46,0.00,,,0.01,WUHU216HW,2013-05-05 23:33:00,
2013-05-05 18:38:00,71.1,49.8,30.09,NW,315,1.6,2.9,47,0.00,,,0.01,WUHU216HW,2013-05-05 23:38:00,
2013-05-05 18:43:00,70.7,49.4,30.09,West,270,1.8,2.7,47,0.00,,,0.01,WUHU216HW,2013-05-05 23:43:00,
2013-05-05 18:48:00,68.4,48.5,30.09,East,90,3.1,3.1,49,0.00,,,0.01,WUHU216HW,2013-05-05 23:48:00,
2013-05-05 18:53:00,66.8,48.2,30.09,WSW,248,0.0,3.6,51,0.00,,,0.01,WUHU216HW,2013-05-05 23:53:00,
2013-05-05 18:58:00,66.2,48.2,30.09,SSW,203,0.0,3.6,52,0.00,,,0.01,WUHU216HW,2013-05-05 23:58:00,
2013-05-05 19:03:00,65.9,48.2,30.09,WSW,248,0.2,1.3,53,0.00,,,0.01,WUHU216HW,2013-05-06 00:03:00,
2013-05-05 19:08:00,65.5,47.9,30.10,ENE,68,0.4,1.1,53,0.00,,,0.01,WUHU216HW,2013-05-06 00:08:00,
2013-05-05 19:13:00,65.2,48.1,30.10,West,270,1.1,1.3,54,0.00,,,0.01,WUHU216HW,2013-05-06 00:13:00,
2013-05-05 19:18:00,64.8,48.2,30.10,NW,315,1.1,2.0,55,0.00,,,0.01,WUHU216HW,2013-05-06 00:18:00,
2013-05-05 19:23:00,64.4,47.8,30.10,WSW,248,0.4,2.7,55,0.00,,,0.01,WUHU216HW,2013-05-06 00:23:00,
2013-05-05 19:28:00,64.3,48.2,30.10,WNW,293,1.1,2.7,56,0.00,,,0.01,WUHU216HW,2013-05-06 00:28:00,
2013-05-05 19:33:00,63.9,47.8,30.10,NNW,338,0.4,2.0,56,0.00,,,0.01,WUHU216HW,2013-05-06 00:33:00,
2013-05-05 19:38:00,63.7,47.6,30.10,SE,135,0.0,1.8,56,0.00,,,0.01,WUHU216HW,2013-05-06 00:38:00,
2013-05-05 19:43:00,63.4,47.8,30.10,North,0,0.7,1.1,57,0.00,,,0.01,WUHU216HW,2013-05-06 00:43:00,
2013-05-05 19:48:00,63.0,47.4,30.10,WNW,293,0.4,1.3,57,0.00,,,0.01,WUHU216HW,2013-05-06 00:48:00,
2013-05-05 19:53:00,62.6,47.6,30.10,NW,315,0.2,1.3,58,0.00,,,0.01,WUHU216HW,2013-05-06 00:53:00,
2013-05-05 19:58:00,62.3,47.4,30.10,NNE,23,0.2,1.1,58,0.00,,,0.01,WUHU216HW,2013-05-06 00:58:00,
2013-05-05 20:03:00,61.9,47.0,30.09,WSW,248,0.0,0.9,58,0.00,,,0.01,WUHU216HW,2013-05-06 01:03:00,
2013-05-05 20:08:00,61.4,47.0,30.09,North,0,0.9,0.9,59,0.00,,,0.01,WUHU216HW,2013-05-06 01:08:00,
2013-05-05 20:13:00,60.8,47.0,30.09,NNW,338,0.0,0.9,60,0.00,,,0.01,WUHU216HW,2013-05-06 01:13:00,
2013-05-05 20:18:00,60.3,46.4,30.09,NW,315,0.0,0.9,60,0.00,,,0.01,WUHU216HW,2013-05-06 01:18:00,
2013-05-05 20:23:00,59.8,46.4,30.09,NW,315,0.0,0.7,61,0.00,,,0.01,WUHU216HW,2013-05-06 01:23:00,
2013-05-05 20:28:00,59.0,46.0,30.09,NW,315,0.0,0.0,62,0.00,,,0.01,WUHU216HW,2013-05-06 01:28:00,
2013-05-05 20:33:00,58.5,45.6,30.09,WNW,293,0.4,0.7,62,0.00,,,0.01,WUHU216HW,2013-05-06 01:33:00,
2013-05-05 20:38:00,58.1,45.6,30.10,WNW,293,0.0,0.7,63,0.00,,,0.01,WUHU216HW,2013-05-06 01:38:00,
2013-05-05 20:43:00,57.6,45.1,30.09,WNW,293,0.0,0.4,63,0.00,,,0.01,WUHU216HW,2013-05-06 01:43:00,
2013-05-05 20:48:00,57.1,45.0,30.10,WNW,293,0.0,0.0,64,0.00,,,0.01,WUHU216HW,2013-05-06 01:48:00,
2013-05-05 20:53:00,56.7,45.0,30.10,WNW,293,0.0,0.0,65,0.00,,,0.01,WUHU216HW,2013-05-06 01:53:00,
2013-05-05 20:58:00,56.9,45.6,30.10,WNW,293,0.0,0.0,66,0.00,,,0.01,WUHU216HW,2013-05-06 01:58:00,
2013-05-05 21:03:00,56.5,45.3,30.10,WNW,293,0.0,0.0,66,0.00,,,0.01,WUHU216HW,2013-05-06 02:03:00,
2013-05-05 21:08:00,56.5,46.4,30.09,WNW,293,0.4,0.7,69,0.00,,,0.01,WUHU216HW,2013-05-06 02:08:00,
2013-05-05 21:13:00,56.3,45.5,30.10,WNW,293,0.0,0.7,67,0.00,,,0.01,WUHU216HW,2013-05-06 02:13:00,
2013-05-05 21:18:00,55.8,45.4,30.10,WNW,293,0.0,0.4,68,0.00,,,0.01,WUHU216HW,2013-05-06 02:18:00,
2013-05-05 21:23:00,55.3,44.9,30.10,WNW,293,0.0,0.0,68,0.00,,,0.01,WUHU216HW,2013-05-06 02:23:00,
2013-05-05 21:28:00,54.9,44.9,30.10,WNW,293,0.0,0.0,69,0.00,,,0.01,WUHU216HW,2013-05-06 02:28:00,
2013-05-05 21:33:00,54.2,44.3,30.10,WNW,293,0.0,0.0,69,0.00,,,0.01,WUHU216HW,2013-05-06 02:33:00,
2013-05-05 21:38:00,53.6,44.1,30.10,WNW,293,0.0,0.0,70,0.00,,,0.01,WUHU216HW,2013-05-06 02:38:00,
2013-05-05 21:43:00,53.1,44.0,30.10,WNW,293,0.0,0.0,71,0.00,,,0.01,WUHU216HW,2013-05-06 02:43:00,
2013-05-05 21:48:00,53.1,44.6,30.10,West,270,0.2,1.1,73,0.00,,,0.01,WUHU216HW,2013-05-06 02:48:00,
2013-05-05 21:53:00,52.9,44.2,30.10,West,270,0.0,1.1,72,0.00,,,0.01,WUHU216HW,2013-05-06 02:53:00,
2013-05-05 21:58:00,52.9,44.6,30.10,West,270,0.0,0.2,73,0.00,,,0.01,WUHU216HW,2013-05-06 02:58:00,
2013-05-05 22:03:00,52.9,44.6,30.10,West,270,0.0,0.2,73,0.00,,,0.01,WUHU216HW,2013-05-06 03:03:00,
2013-05-05 22:08:00,52.7,44.4,30.10,West,270,0.0,0.4,73,0.00,,,0.01,WUHU216HW,2013-05-06 03:08:00,
2013-05-05 22:13:00,52.7,44.7,30.10,West,270,0.0,0.4,74,0.00,,,0.01,WUHU216HW,2013-05-06 03:13:00,
2013-05-05 22:18:00,52.7,44.4,30.10,West,270,0.0,0.0,73,0.00,,,0.01,WUHU216HW,2013-05-06 03:18:00,
2013-05-05 22:23:00,52.6,44.6,30.10,West,270,0.4,0.4,74,0.00,,,0.01,WUHU216HW,2013-05-06 03:23:00,
2013-05-05 22:28:00,52.6,44.6,30.10,WSW,248,0.0,0.9,74,0.00,,,0.01,WUHU216HW,2013-05-06 03:28:00,
2013-05-05 22:33:00,52.4,44.4,30.10,WSW,248,0.0,0.9,74,0.00,,,0.01,WUHU216HW,2013-05-06 03:33:00,
2013-05-05 22:38:00,52.2,44.6,30.10,WSW,248,0.0,0.0,75,0.00,,,0.01,WUHU216HW,2013-05-06 03:38:00,
2013-05-05 22:43:00,52.2,44.6,30.10,WSW,248,0.0,0.2,75,0.00,,,0.01,WUHU216HW,2013-05-06 03:43:00,
2013-05-05 22:48:00,52.2,44.6,30.10,WSW,248,0.0,0.4,75,0.00,,,0.01,WUHU216HW,2013-05-06 03:48:00,
2013-05-05 22:53:00,51.8,44.2,30.10,WSW,248,0.0,0.4,75,0.00,,,0.01,WUHU216HW,2013-05-06 03:53:00,
2013-05-05 22:58:00,51.5,44.2,30.10,WSW,248,0.0,0.0,76,0.00,,,0.01,WUHU216HW,2013-05-06 03:58:00,
2013-05-05 23:01:00,51.5,43.8,30.10,WSW,248,0.0,0.0,75,0.00,,,0.01,WUHU216HW,2013-05-06 04:01:00,
2013-05-05 23:06:00,51.5,44.6,30.10,WSW,248,0.2,0.2,77,0.00,,,0.01,WUHU216HW,2013-05-06 04:06:00,
2013-05-05 23:11:00,51.5,44.8,30.10,West,270,0.4,0.9,78,0.00,,,0.01,WUHU216HW,2013-05-06 04:11:00,
2013-05-05 23:16:00,51.7,45.4,30.10,West,270,0.4,1.3,79,0.00,,,0.01,WUHU216HW,2013-05-06 04:16:00,
2013-05-05 23:21:00,51.8,45.5,30.10,West,270,0.4,1.6,79,0.00,,,0.01,WUHU216HW,2013-05-06 04:21:00,
2013-05-05 23:26:00,51.8,45.5,30.10,West,270,1.1,2.2,79,0.00,,,0.01,WUHU216HW,2013-05-06 04:26:00,
2013-05-05 23:31:00,51.8,45.2,30.10,West,270,0.7,2.2,78,0.00,,,0.01,WUHU216HW,2013-05-06 04:31:00,
2013-05-05 23:36:00,51.7,45.0,30.10,West,270,0.4,2.5,78,0.00,,,0.01,WUHU216HW,2013-05-06 04:36:00,
2013-05-05 23:41:00,51.5,44.8,30.10,West,270,0.4,2.5,78,0.00,,,0.01,WUHU216HW,2013-05-06 04:41:00,
2013-05-05 23:46:00,51.5,45.5,30.10,West,270,1.1,2.0,80,0.00,,,0.01,WUHU216HW,2013-05-06 04:46:00,
2013-05-05 23:51:00,51.3,45.0,30.10,West,270,0.9,2.0,79,0.00,,,0.01,WUHU216HW,2013-05-06 04:51:00,
2013-05-05 23:56:00,51.1,45.2,30.10,West,270,0.9,1.8,80,0.00,,,0.01,WUHU216HW,2013-05-06 04:56:00,